QPF
0.00 0.00 0.00 0.00 0.00 0.00 0.00 0.00 0.00 0.00 0.00 0.00 0.00 0.00 0.00 0.00 0.00 0.00 0.00 0.00 0.00 0.00 0.00 0.00 0.00 0.00 0.00 0.00 0.00 0.00 0.00 0.00 0.00 0.00 0.00 0.00 0.00 0.00 0.00 0.00 0.00 0.00 0.00 0.00 0.00 0.00 0.00 0.00 0.00 0.00 0.00 0.00 0.00 0.00 0.00 0.00 0.00 0.00 0.00 0.00 0.00 0.00 0.00 0.00 0.00 0.00 0.00 0.00 0.00 0.00 0.00 0.00 0.00 0.00
0.00 0.00 0.00 0.00 0.00 0.00 0.00 0.00 0.00 0.00 0.00 0.00 0.00 0.00 0.00 0.00 0.00 0.00 0.00 0.00 0.00 0.00 0.00 0.00 0.00 0.00 0.00 0.00 0.00 0.00 0.00 0.00 0.00 0.00 0.00 0.00 0.00 0.00 0.00 0.00 0.00 0.00 0.00 0.00 0.00 0.00 0.00 0.00 0.00 0.00 0.00 0.00 0.00 0.00 0.00 0.00 0.00 0.00 0.00 0.00 0.00 0.00 0.00 0.00 0.00 0.00 0.00 0.00 0.00 0.00 0.00 0.00 0.00 0.00
0.00 0.00 0.00 0.00 0.00 0.00 0.00 0.00 0.00 0.00 0.00 0.00 0.00 0.00 0.00 0.00 0.00 0.00 0.00 0.00 0.00 0.00 0.00 0.00 0.00 0.00 0.00 0.00 0.00 0.00 0.00 0.00 0.00 0.00 0.00 0.00 0.00 0.00 0.00 0.00 0.00 0.00 0.00 0.00 0.00 0.00 0.00 0.00 0.00 0.00 0.00 0.00 0.00 0.00 0.00 0.00 0.00 0.00 0.00 0.00 0.00 0.00 0.00 0.00 0.00 0.00 0.00 0.00 0.00 0.00 0.00 0.00 0.00 0.00
0.00 0.00 0.00 0.00 0.00 0.00 0.00 0.00 0.00 0.00 0.00 0.00 0.00 0.00 0.00 0.00 0.00 0.00 0.00 0.00 0.00 0.00 0.00 0.00 0.00 0.00 0.00 0.00 0.00 0.00 0.00 0.00 0.00 0.00 0.00 0.00 0.00 0.00 0.00 0.00 0.00 0.00 0.00 0.00 0.00 0.00 0.00 0.00 0.00 0.00 0.00 0.00 0.00 0.00 0.00 0.00 0.00 0.00 0.00 0.00 0.00 0.00 0.00 0.00 0.00 0.00 0.00 0.00 0.00 0.00 0.00 0.00 0.00 0.00
0.00 0.00 0.00 0.00 0.00 0.00 0.00 0.00 0.00 0.00 0.00 0.00 0.00 0.00 0.00 0.00 0.00 0.00 0.00 0.00 0.00 0.00 0.00 0.00 0.00 0.00 0.00 0.00 0.00 0.00 0.00 0.00 0.00 0.00 0.00 0.00 0.00 0.00 0.00 0.00 0.00 0.00 0.00 0.00 0.00 0.00 0.00 0.00 0.00 0.00 0.00 0.00 0.00 0.00 0.00 0.00 0.00 0.00 0.00 0.00 0.00 0.00 0.00 0.00 0.00 0.00 0.00 0.00 0.00 0.00 0.00 0.00 0.00 0.00
0.00 0.00 0.00 0.00 0.00 0.00 0.00 0.00 0.00 0.00 0.00 0.00 0.00 0.00 0.00 0.00 0.00 0.00 0.00 0.00 0.00 0.00 0.00 0.00 0.00 0.00 0.00 0.00 0.00 0.00 0.00 0.00 0.00 0.00 0.00 0.00 0.00 0.00 0.00 0.00 0.00 0.00 0.00 0.00 0.00 0.00 0.00 0.00 0.00 0.00 0.00 0.00 0.00 0.00 0.00 0.00 0.00 0.00 0.00 0.00 0.00 0.00 0.00 0.00 0.00 0.00 0.00 0.00 0.00 0.00 0.00 0.00 0.00 0.00
0.00 0.00 0.00 0.00 0.00 0.00 0.00 0.00 0.00 0.00 0.00 0.00 0.00 0.00 0.00 0.00 0.00 0.00 0.00 0.00 0.00 0.00 0.00 0.00 0.00 0.00 0.00 0.00 0.00 0.00 0.00 0.00 0.00 0.00 0.00 0.00 0.00 0.00 0.00 0.00 0.00 0.00 0.00 0.00 0.00 0.00 0.00 0.00 0.00 0.00 0.00 0.00 0.00 0.00 0.00 0.00 0.00 0.00 0.00 0.00 0.00 0.00 0.00 0.00 0.00 0.00 0.00 0.00 0.00 0.00 0.00 0.00 0.00 0.00
0.00 0.00 0.00 0.00 0.00 0.00 0.00 0.00 0.00 0.00 0.00 0.00 0.00 0.00 0.00 0.00 0.00 0.00 0.00 0.00 0.00 0.00 0.00 0.00 0.00 0.00 0.00 0.00 0.00 0.00 0.00 0.00 0.00 0.00 0.00 0.00 0.00 0.00 0.00 0.00 0.00 0.00 0.00 0.00 0.00 0.00 0.00 0.00 0.00 0.00 0.00 0.00 0.00 0.00 0.00 0.00 0.00 0.00 0.00 0.00 0.00 0.00 0.00 0.00 0.00 0.00 0.00 0.00 0.00 0.00 0.00 0.00 0.00 0.00
0.00 0.00 0.00 0.00 0.00 0.00 0.00 0.00 0.00 0.00 0.00 0.00 0.00 0.00 0.00 0.00 0.00 0.00 0.00 0.00 0.00 0.00 0.00 0.00 0.00 0.00 0.00 0.00 0.00 0.00 0.00 0.00 0.00 0.00 0.00 0.00 0.00 0.00 0.00 0.00 0.00 0.00 0.00 0.00 0.00 0.00 0.00 0.00 0.00 0.00 0.00 0.00 0.00 0.00 0.00 0.00 0.00 0.00 0.00 0.00 0.00 0.00 0.00 0.00 0.00 0.00 0.00 0.00 0.00 0.00 0.00 0.00 0.00 0.00
0.00 0.00 0.00 0.00 0.00 0.00 0.00 0.00 0.00 0.00 0.00 0.00 0.00 0.00 0.00 0.00 0.00 0.00 0.00 0.00 0.00 0.00 0.00 0.00 0.00 0.00 0.00 0.00 0.00 0.00 0.00 0.00 0.00 0.00 0.00 0.00 0.00 0.00 0.00 0.00 0.00 0.00 0.00 0.00 0.00 0.00 0.00 0.00 0.00 0.00 0.00 0.00 0.00 0.00 0.00 0.00 0.00 0.00 0.00 0.00 0.00 0.00 0.00 0.00 0.00 0.00 0.00 0.00 0.00 0.00 0.00 0.00 0.00 0.00
0.00 0.00 0.00 0.00 0.00 0.00 0.00 0.00 0.00 0.00 0.00 0.00 0.00 0.00 0.00 0.00 0.00 0.00 0.00 0.00 0.00 0.00 0.00 0.00 0.00 0.00 0.00 0.00 0.00 0.00 0.00 0.00 0.00 0.00 0.00 0.00 0.00 0.00 0.00 0.00 0.00 0.00 0.00 0.00 0.00 0.00 0.00 0.00 0.00 0.00 0.00 0.00 0.00 0.00 0.00 0.00 0.00 0.00 0.00 0.00 0.00 0.00 0.00 0.00 0.00 0.00 0.00 0.00 0.00 0.00 0.00 0.00 0.00 0.00
0.00 0.00 0.00 0.00 0.00 0.00 0.00 0.00 0.00 0.00 0.00 0.00 0.00 0.00 0.00 0.00 0.00 0.00 0.00 0.00 0.00 0.00 0.00 0.00 0.00 0.00 0.00 0.00 0.00 0.00 0.00 0.00 0.00 0.00 0.00 0.00 0.00 0.00 0.00 0.00 0.00 0.00 0.00 0.00 0.00 0.00 0.00 0.00 0.00 0.00 0.00 0.00 0.00 0.00 0.00 0.00 0.00 0.00 0.00 0.00 0.00 0.00 0.00 0.00 0.00 0.00 0.00 0.00 0.00 0.00 0.00 0.00 0.00 0.00
0.00 0.00 0.00 0.00 0.00 0.00 0.00 0.00 0.00 0.00 0.00 0.00 0.00 0.00 0.00 0.00 0.00 0.00 0.00 0.00 0.00 0.00 0.00 0.00 0.00 0.00 0.00 0.00 0.00 0.00 0.00 0.00 0.00 0.00 0.00 0.00 0.00 0.00 0.00 0.00 0.00 0.00 0.00 0.00 0.00 0.00 0.00 0.00 0.00 0.00 0.00 0.00 0.00 0.00 0.00 0.00 0.00 0.00 0.00 0.00 0.00 0.00 0.00 0.00 0.00 0.00 0.00 0.00 0.00 0.00 0.00 0.00 0.00 0.00
0.00 0.00 0.00 0.00 0.00 0.00 0.00 0.00 0.00 0.00 0.00 0.00 0.00 0.00 0.00 0.00 0.00 0.00 0.00 0.00 0.00 0.00 0.00 0.00 0.00 0.00 0.00 0.00 0.00 0.00 0.00 0.00 0.00 0.00 0.00 0.00 0.00 0.00 0.00 0.00 0.00 0.00 0.00 0.00 0.00 0.00 0.00 0.00 0.00 0.00 0.00 0.00 0.00 0.00 0.00 0.00 0.00 0.00 0.00 0.00 0.00 0.00 0.00 0.00 0.00 0.00 0.00 0.00 0.00 0.00 0.00 0.00 0.00 0.00
0.00 0.00 0.00 0.00 0.00 0.00 0.00 0.00 0.00 0.00 0.00 0.00 0.00 0.00 0.00 0.00 0.00 0.00 0.00 0.00 0.00 0.00 0.00 0.00 0.00 0.00 0.00 0.00 0.00 0.00 0.00 0.00 0.00 0.00 0.00 0.00 0.00 0.00 0.00 0.00 0.00 0.00 0.00 0.00 0.00 0.00 0.00 0.00 0.00 0.00 0.00 0.00 0.00 0.00 0.00 0.00 0.00 0.00 0.00 0.00 0.00 0.00 0.00 0.00 0.00 0.00 0.00 0.00 0.00 0.00 0.00 0.00 0.04 0.06
0.00 0.00 0.00 0.00 0.00 0.00 0.00 0.00 0.00 0.00 0.00 0.00 0.00 0.00 0.00 0.00 0.00 0.00 0.00 0.00 0.00 0.00 0.00 0.00 0.00 0.00 0.00 0.00 0.00 0.00 0.00 0.00 0.00 0.00 0.00 0.00 0.00 0.00 0.00 0.00 0.00 0.00 0.00 0.00 0.00 0.00 0.00 0.00 0.00 0.00 0.00 0.00 0.00 0.00 0.00 0.00 0.00 0.00 0.00 0.00 0.00 0.00 0.00 0.00 0.00 0.00 0.00 0.00 0.09 0.17 0.05 0.00 0.01 0.07
0.00 0.00 0.00 0.00 0.00 0.00 0.00 0.00 0.00 0.00 0.00 0.00 0.00 0.00 0.00 0.00 0.00 0.00 0.00 0.00 0.00 0.00 0.00 0.00 0.00 0.00 0.00 0.00 0.00 0.00 0.00 0.00 0.00 0.00 0.00 0.00 0.00 0.00 0.00 0.00 0.00 0.00 0.00 0.00 0.00 0.00 0.00 0.00 0.00 0.00 0.00 0.00 0.00 0.00 0.00 0.00 0.00 0.00 0.00 0.00 0.00 0.00 0.00 0.00 0.00 0.00 0.00 0.02 0.05 0.01 0.00 0.00 0.02 0.14
0.00 0.00 0.00 0.00 0.00 0.00 0.00 0.00 0.00 0.00 0.00 0.00 0.00 0.00 0.00 0.00 0.00 0.00 0.00 0.00 0.00 0.00 0.00 0.00 0.00 0.00 0.00 0.00 0.00 0.00 0.00 0.00 0.00 0.00 0.00 0.00 0.00 0.00 0.00 0.00 0.00 0.00 0.00 0.00 0.00 0.00 0.00 0.00 0.00 0.00 0.00 0.00 0.00 0.00 0.00 0.00 0.00 0.00 0.00 0.00 0.00 0.00 0.00 0.00 0.00 0.00 0.00 0.00 0.00 0.00 0.00 0.00 0.00 0.14
0.00 0.00 0.00 0.00 0.00 0.00 0.00 0.00 0.00 0.00 0.00 0.00 0.00 0.00 0.00 0.00 0.00 0.00 0.00 0.00 0.00 0.00 0.00 0.00 0.00 0.00 0.00 0.00 0.00 0.00 0.00 0.00 0.00 0.00 0.00 0.00 0.00 0.00 0.00 0.00 0.00 0.00 0.00 0.00 0.00 0.00 0.00 0.00 0.00 0.00 0.00 0.00 0.00 0.00 0.00 0.00 0.00 0.00 0.00 0.00 0.00 0.00 0.00 0.00 0.00 0.00 0.00 0.00 0.00 0.00 0.00 0.00 0.00 0.23
0.00 0.00 0.00 0.00 0.00 0.00 0.14 0.07 0.00 0.00 0.00 0.00 0.00 0.00 0.00 0.00 0.00 0.00 0.00 0.00 0.00 0.00 0.00 0.00 0.00 0.00 0.00 0.00 0.00 0.00 0.00 0.00 0.00 0.00 0.00 0.00 0.00 0.00 0.00 0.00 0.00 0.00 0.00 0.00 0.00 0.00 0.00 0.00 0.00 0.00 0.00 0.00 0.00 0.00 0.00 0.00 0.00 0.00 0.00 0.00 0.00 0.00 0.00 0.00 0.00 0.00 0.00 0.00 0.00 0.00 0.00 0.00 0.00 0.00
0.00 0.00 0.00 0.00 0.30 0.31 0.25 0.15 0.13 0.01 0.00 0.00 0.00 0.00 0.00 0.00 0.00 0.00 0.00 0.00 0.00 0.00 0.00 0.00 0.00 0.00 0.00 0.00 0.00 0.00 0.00 0.00 0.00 0.00 0.00 0.00 0.00 0.00 0.00 0.00 0.00 0.00 0.00 0.00 0.00 0.00 0.00 0.00 0.00 0.00 0.00 0.00 0.00 0.00 0.00 0.00 0.00 0.00 0.00 0.00 0.00 0.00 0.00 0.00 0.00 0.00 0.00 0.00 0.00 0.00 0.00 0.00 0.00 0.00
0.00 0.02 0.00 0.23 0.25 0.20 0.11 0.09 0.04 0.06 0.05 0.01 0.00 0.00 0.00 0.00 0.00 0.00 0.00 0.00 0.00 0.00 0.00 0.00 0.00 0.00 0.00 0.00 0.00 0.00 0.00 0.00 0.00 0.00 0.00 0.00 0.00 0.00 0.00 0.00 0.00 0.00 0.00 0.00 0.00 0.00 0.00 0.00 0.00 0.00 0.00 0.00 0.00 0.00 0.00 0.00 0.00 0.00 0.00 0.00 0.00 0.00 0.00 0.00 0.00 0.00 0.00 0.00 0.00 0.00 0.00 0.00 0.00 0.00
0.01 0.49 0.19 0.20 0.05 0.07 0.16 0.03 0.03 0.03 0.03 0.01 0.00 0.00 0.00 0.00 0.00 0.00 0.00 0.00 0.00 0.00 0.00 0.00 0.00 0.00 0.00 0.00 0.00 0.00 0.00 0.00 0.00 0.00 0.00 0.00 0.00 0.00 0.00 0.00 0.00 0.00 0.00 0.00 0.00 0.00 0.00 0.00 0.00 0.00 0.00 0.00 0.00 0.00 0.00 0.00 0.00 0.00 0.00 0.00 0.00 0.00 0.00 0.00 0.00 0.00 0.00 0.00 0.00 0.00 0.00 0.00 0.00 0.00
0.05 0.10 0.16 0.18 0.14 0.17 0.07 0.04 0.04 0.03 0.02 0.01 0.00 0.00 0.00 0.00 0.00 0.00 0.00 0.00 0.00 0.00 0.00 0.00 0.00 0.00 0.00 0.00 0.00 0.00 0.00 0.00 0.00 0.00 0.00 0.00 0.00 0.00 0.00 0.00 0.00 0.00 0.00 0.00 0.00 0.00 0.00 0.00 0.00 0.00 0.00 0.00 0.00 0.00 0.00 0.00 0.00 0.00 0.00 0.00 0.00 0.00 0.00 0.00 0.00 0.00 0.00 0.00 0.00 0.00 0.00 0.00 0.00 0.00
0.04 0.05 0.13 0.30 0.30 0.33 0.39 0.09 0.06 0.04 0.04 0.03 0.03 0.00 0.00 0.00 0.00 0.00 0.00 0.00 0.00 0.00 0.00 0.00 0.00 0.00 0.00 0.00 0.00 0.00 0.00 0.00 0.00 0.00 0.00 0.00 0.00 0.00 0.00 0.00 0.00 0.00 0.00 0.00 0.00 0.00 0.00 0.00 0.00 0.00 0.00 0.00 0.00 0.00 0.00 0.00 0.00 0.00 0.00 0.00 0.00 0.00 0.00 0.00 0.00 0.00 0.00 0.00 0.00 0.00 0.00 0.00 0.00 0.00
0.32 0.64 0.63 0.37 0.28 0.25 0.27 0.30 0.63 0.24 0.16 0.05 0.09 0.01 0.00 0.00 0.00 0.00 0.00 0.00 0.00 0.00 0.00 0.00 0.00 0.00 0.00 0.00 0.00 0.00 0.00 0.00 0.00 0.00 0.00 0.00 0.00 0.00 0.00 0.00 0.00 0.00 0.00 0.00 0.00 0.00 0.00 0.00 0.00 0.00 0.00 0.00 0.00 0.00 0.00 0.00 0.00 0.00 0.00 0.00 0.00 0.00 0.00 0.00 0.00 0.00 0.00 0.00 0.00 0.00 0.00 0.00 0.00 0.00
0.10 0.15 0.29 0.35 0.42 0.46 0.57 0.81 0.63 0.38 0.16 0.12 0.05 0.03 0.02 0.01 0.00 0.00 0.00 0.00 0.01 0.01 0.00 0.02 0.00 0.00 0.00 0.00 0.00 0.00 0.00 0.00 0.00 0.00 0.00 0.00 0.00 0.00 0.00 0.00 0.00 0.00 0.00 0.00 0.00 0.00 0.00 0.00 0.00 0.00 0.00 0.00 0.00 0.00 0.00 0.00 0.00 0.00 0.00 0.00 0.00 0.00 0.00 0.00 0.00 0.00 0.00 0.00 0.00 0.00 0.00 0.00 0.00 0.00
0.25 0.33 0.26 0.26 0.25 0.61 0.81 0.80 0.56 0.56 0.40 0.34 0.21 0.15 0.09 0.04 0.02 0.01 0.00 0.06 0.00 0.02 0.02 0.01 0.00 0.00 0.00 0.00 0.00 0.00 0.02 0.01 0.01 0.00 0.00 0.00 0.00 0.00 0.00 0.00 0.00 0.00 0.00 0.00 0.00 0.00 0.00 0.00 0.00 0.00 0.00 0.00 0.00 0.00 0.00 0.00 0.00 0.00 0.00 0.00 0.00 0.00 0.00 0.00 0.00 0.00 0.00 0.00 0.00 0.00 0.00 0.00 0.00 0.00
0.36 0.82 1.32 1.66 1.30 0.99 0.64 0.52 0.47 0.45 0.33 0.31 0.22 0.10 0.04 0.00 0.00 0.07 0.09 0.18 0.12 0.35 0.17 0.02 0.03 0.01 0.02 0.01 0.01 0.01 0.00 0.00 0.00 0.00 0.00 0.00 0.00 0.00 0.00 0.00 0.00 0.00 0.00 0.00 0.00 0.00 0.00 0.00 0.00 0.00 0.00 0.00 0.00 0.00 0.00 0.00 0.00 0.00 0.00 0.00 0.00 0.00 0.00 0.00 0.00 0.00 0.00 0.00 0.00 0.00 0.00 0.00 0.00 0.00
0.00 0.02 0.14 0.11 0.20 0.25 0.43 0.48 0.39 0.31 0.14 0.02 0.02 0.00 0.01 0.00 0.00 0.00 0.03 0.10 0.10 0.55 0.82 0.34 0.59 0.82 0.24 0.15 0.09 0.17 0.08 0.07 0.00 0.00 0.00 0.00 0.00 0.00 0.00 0.00 0.00 0.00 0.00 0.00 0.00 0.00 0.00 0.00 0.00 0.00 0.00 0.00 0.00 0.00 0.00 0.00 0.00 0.00 0.00 0.00 0.00 0.00 0.00 0.00 0.00 0.00 0.00 0.00 0.00 0.00 0.00 0.00 0.00 0.00
0.00 0.00 0.00 0.00 0.00 0.02 0.00 0.01 0.01 0.01 0.01 0.00 0.00 0.00 0.00 0.00 0.00 0.00 0.00 0.05 0.05 0.05 0.08 0.18 0.06 0.04 0.04 0.04 0.03 0.04 0.02 0.06 0.01 0.00 0.00 0.00 0.00 0.00 0.00 0.00 0.00 0.00 0.00 0.00 0.00 0.00 0.00 0.00 0.00 0.00 0.00 0.00 0.00 0.00 0.00 0.00 0.00 0.00 0.00 0.00 0.00 0.00 0.00 0.00 0.00 0.00 0.00 0.00 0.00 0.00 0.00 0.00 0.00 0.00
0.00 0.00 0.00 0.00 0.00 0.00 0.00 0.00 0.00 0.00 0.00 0.00 0.00 0.00 0.00 0.00 0.00 0.00 0.00 0.00 0.02 0.03 0.01 0.00 0.00 0.01 0.00 0.01 0.00 0.00 0.00 0.00 0.00 0.00 0.00 0.00 0.00 0.00 0.00 0.00 0.00 0.00 0.00 0.00 0.00 0.00 0.00 0.00 0.00 0.00 0.00 0.00 0.00 0.00 0.00 0.00 0.00 0.00 0.00 0.00 0.00 0.00 0.00 0.00 0.00 0.00 0.00 0.00 0.00 0.00 0.00 0.00 0.00 0.00
0.00 0.00 0.00 0.00 0.00 0.00 0.00 0.00 0.00 0.00 0.00 0.00 0.00 0.00 0.00 0.00 0.00 0.02 0.06 0.01 0.02 0.01 0.01 0.00 0.00 0.00 0.00 0.00 0.00 0.00 0.00 0.00 0.00 0.00 0.00 0.00 0.00 0.00 0.00 0.00 0.00 0.00 0.00 0.00 0.00 0.00 0.00 0.00 0.00 0.00 0.00 0.00 0.00 0.00 0.00 0.00 0.00 0.00 0.00 0.00 0.00 0.00 0.00 0.00 0.00 0.00 0.00 0.00 0.00 0.00 0.00 0.00 0.00 0.00
0.00 0.00 0.00 0.00 0.00 0.00 0.00 0.00 0.02 0.00 0.00 0.00 0.01 0.00 0.00 0.00 0.00 0.00 0.00 0.00 0.01 0.01 0.01 0.00 0.00 0.00 0.00 0.00 0.00 0.00 0.00 0.00 0.00 0.00 0.00 0.00 0.00 0.00 0.00 0.00 0.00 0.00 0.00 0.00 0.00 0.00 0.00 0.00 0.00 0.00 0.00 0.00 0.00 0.00 0.00 0.00 0.00 0.00 0.00 0.00 0.00 0.00 0.00 0.00 0.00 0.00 0.00 0.00 0.00 0.00 0.00 0.00 0.00 0.00
0.00 0.00 0.00 0.00 0.00 0.00 0.01 0.00 0.00 0.01 0.02 0.03 0.02 0.02 0.01 0.01 0.01 0.01 0.02 0.01 0.00 0.00 0.00 0.00 0.00 0.00 0.00 0.00 0.00 0.00 0.00 0.00 0.00 0.00 0.00 0.00 0.00 0.00 0.00 0.00 0.00 0.00 0.00 0.00 0.00 0.00 0.00 0.00 0.00 0.00 0.00 0.00 0.00 0.00 0.00 0.00 0.00 0.00 0.00 0.00 0.00 0.00 0.00 0.00 0.00 0.00 0.00 0.00 0.00 0.00 0.00 0.00 0.00 0.00
0.00 0.00 0.00 0.00 0.00 0.00 0.00 0.03 0.02 0.02 0.02 0.00 0.01 0.02 0.03 0.03 0.02 0.01 0.01 0.00 0.00 0.00 0.00 0.00 0.00 0.00 0.00 0.00 0.00 0.00 0.00 0.00 0.00 0.00 0.00 0.00 0.00 0.00 0.00 0.00 0.00 0.00 0.00 0.00 0.00 0.00 0.00 0.00 0.00 0.00 0.00 0.00 0.00 0.00 0.00 0.00 0.00 0.00 0.00 0.00 0.00 0.00 0.00 0.00 0.00 0.00 0.00 0.00 0.00 0.00 0.00 0.00 0.00 0.00
0.00 0.00 0.00 0.00 0.00 0.00 0.00 0.00 0.00 0.00 0.00 0.00 0.00 0.00 0.01 0.01 0.02 0.01 0.01 0.01 0.00 0.00 0.00 0.00 0.00 0.00 0.00 0.00 0.00 0.00 0.00 0.00 0.00 0.00 0.00 0.00 0.00 0.00 0.00 0.00 0.00 0.00 0.00 0.00 0.00 0.00 0.00 0.00 0.00 0.00 0.00 0.00 0.00 0.00 0.00 0.00 0.00 0.00 0.00 0.00 0.00 0.00 0.00 0.00 0.00 0.00 0.00 0.00 0.00 0.00 0.00 0.00 0.00 0.00
0.00 0.00 0.00 0.00 0.01 0.00 0.00 0.00 0.00 0.00 0.00 0.00 0.00 0.00 0.00 0.00 0.00 0.00 0.00 0.00 0.00 0.00 0.00 0.00 0.00 0.00 0.00 0.00 0.00 0.00 0.00 0.00 0.00 0.00 0.00 0.00 0.00 0.00 0.00 0.00 0.00 0.00 0.00 0.00 0.00 0.00 0.00 0.00 0.00 0.00 0.00 0.00 0.00 0.00 0.00 0.00 0.00 0.00 0.00 0.00 0.00 0.00 0.00 0.00 0.00 0.00 0.00 0.00 0.00 0.00 0.00 0.00 0.00 0.00
0.00 0.00 0.00 0.00 0.00 0.00 0.00 0.01 0.02 0.00 0.01 0.00 0.00 0.00 0.00 0.00 0.00 0.00 0.00 0.00 0.00 0.03 0.02 0.00 0.00 0.00 0.00 0.00 0.00 0.00 0.00 0.00 0.00 0.00 0.00 0.00 0.00 0.00 0.00 0.00 0.00 0.00 0.00 0.00 0.00 0.00 0.00 0.00 0.00 0.00 0.00 0.00 0.00 0.00 0.00 0.00 0.00 0.00 0.00 0.00 0.00 0.00 0.00 0.00 0.00 0.00 0.00 0.00 0.00 0.00 0.00 0.00 0.00 0.00
0.00 0.00 0.00 0.00 0.00 0.00 0.00 0.00 0.00 0.00 0.00 0.00 0.00 0.00 0.00 0.00 0.00 0.01 0.00 0.00 0.00 0.00 0.00 0.00 0.05 0.01 0.00 0.00 0.00 0.00 0.00 0.00 0.00 0.00 0.00 0.00 0.00 0.00 0.00 0.00 0.00 0.00 0.00 0.00 0.00 0.00 0.00 0.00 0.00 0.00 0.00 0.00 0.00 0.00 0.00 0.00 0.00 0.00 0.00 0.00 0.00 0.00 0.00 0.00 0.00 0.00 0.00 0.00 0.00 0.00 0.00 0.00 0.00 0.00
0.00 0.00 0.00 0.00 0.00 0.00 0.00 0.00 0.00 0.00 0.00 0.00 0.00 0.00 0.01 0.01 0.01 0.00 0.00 0.00 0.00 0.00 0.00 0.00 0.00 0.00 0.00 0.00 0.00 0.00 0.00 0.00 0.00 0.00 0.00 0.00 0.00 0.00 0.00 0.00 0.00 0.00 0.00 0.00 0.00 0.00 0.00 0.00 0.00 0.00 0.00 0.00 0.00 0.00 0.00 0.00 0.00 0.00 0.00 0.00 0.00 0.00 0.00 0.00 0.00 0.00 0.00 0.00 0.00 0.00 0.00 0.00 0.00 0.00
0.00 0.00 0.00 0.00 0.00 0.00 0.00 0.00 0.00 0.00 0.00 0.00 0.00 0.00 0.00 0.00 0.00 0.00 0.00 0.00 0.00 0.00 0.00 0.00 0.00 0.00 0.00 0.00 0.00 0.00 0.00 0.00 0.00 0.00 0.00 0.00 0.00 0.00 0.00 0.00 0.00 0.00 0.00 0.00 0.00 0.00 0.00 0.00 0.00 0.00 0.00 0.00 0.00 0.00 0.00 0.00 0.00 0.00 0.00 0.00 0.00 0.00 0.00 0.00 0.00 0.00 0.00 0.00 0.00 0.00 0.00 0.00 0.00 0.00
0.00 0.00 0.00 0.00 0.00 0.00 0.00 0.00 0.00 0.00 0.00 0.00 0.00 0.00 0.00 0.00 0.00 0.00 0.00 0.00 0.00 0.00 0.00 0.00 0.00 0.00 0.00 0.00 0.00 0.00 0.00 0.00 0.00 0.00 0.00 0.00 0.00 0.00 0.00 0.00 0.00 0.00 0.00 0.00 0.00 0.00 0.00 0.00 0.00 0.00 0.00 0.00 0.00 0.00 0.00 0.00 0.00 0.00 0.00 0.00 0.00 0.00 0.00 0.00 0.00 0.00 0.00 0.00 0.00 0.00 0.00 0.00 0.00 0.00
0.00 0.00 0.00 0.00 0.00 0.00 0.00 0.00 0.00 0.00 0.00 0.00 0.00 0.00 0.00 0.00 0.00 0.00 0.00 0.00 0.00 0.00 0.00 0.00 0.00 0.00 0.00 0.00 0.00 0.00 0.00 0.00 0.00 0.00 0.00 0.00 0.00 0.00 0.00 0.00 0.00 0.00 0.00 0.00 0.00 0.00 0.00 0.00 0.00 0.00 0.00 0.00 0.00 0.00 0.00 0.00 0.00 0.00 0.00 0.00 0.00 0.00 0.00 0.00 0.00 0.00 0.00 0.00 0.00 0.00 0.00 0.00 0.00 0.00
0.00 0.00 0.00 0.00 0.00 0.00 0.00 0.00 0.00 0.00 0.00 0.00 0.00 0.00 0.00 0.00 0.00 0.00 0.00 0.00 0.00 0.00 0.00 0.00 0.00 0.00 0.00 0.00 0.00 0.00 0.00 0.00 0.00 0.00 0.00 0.00 0.00 0.00 0.00 0.00 0.00 0.00 0.00 0.00 0.00 0.00 0.00 0.00 0.00 0.00 0.00 0.00 0.00 0.00 0.00 0.00 0.00 0.00 0.00 0.00 0.00 0.00 0.00 0.00 0.00 0.00 0.00 0.00 0.00 0.00 0.00 0.00 0.00 0.00
MSLP
1021.05 1021.01 1020.97 1021.01 1020.85 1020.73 1020.69 1020.73 1020.81 1020.85 1020.97 1021.05 1021.13 1021.25 1021.81 1022.17 1023.17 1023.57 1023.37 1022.65 1022.29 1021.01 1020.45 1021.01 1019.61 1018.85 1018.77 1018.77 1018.37 1018.33 1018.17 1017.97 1017.77 1017.65 1017.53 1017.41 1017.21 1017.05 1016.93 1016.69 1016.49 1016.37 1016.29 1016.17 1016.05 1015.85 1015.65 1015.45 1015.25 1015.09 1014.85 1014.65 1014.45 1014.33 1014.29 1014.33 1014.49 1014.65 1014.73 1014.85 1015.01 1015.17 1015.25 1015.33 1015.45 1015.57 1015.69 1015.77 1015.85 1015.93 1016.01 1016.13 1016.25 1016.33
1020.93 1020.89 1020.85 1020.77 1020.81 1020.53 1020.57 1020.61 1020.57 1020.73 1020.77 1020.89 1020.97 1021.05 1021.13 1021.33 1022.33 1022.77 1023.37 1023.01 1021.77 1021.37 1020.33 1020.17 1020.25 1019.17 1019.05 1018.69 1018.57 1018.37 1018.33 1018.01 1017.85 1017.73 1017.57 1017.41 1017.25 1017.13 1016.93 1016.69 1016.53 1016.41 1016.29 1016.17 1016.01 1015.85 1015.65 1015.49 1015.33 1015.13 1014.97 1014.73 1014.49 1014.33 1014.21 1014.21 1014.33 1014.53 1014.69 1014.81 1014.97 1015.13 1015.25 1015.37 1015.49 1015.61 1015.77 1015.89 1015.97 1016.05 1016.13 1016.21 1016.33 1016.41
1020.81 1020.89 1020.89 1020.73 1020.73 1020.49 1020.49 1020.49 1020.53 1020.53 1020.65 1020.73 1020.81 1020.93 1021.01 1021.17 1021.37 1021.93 1022.41 1023.25 1021.61 1021.01 1021.17 1020.17 1019.41 1019.57 1019.17 1018.81 1018.73 1018.49 1018.25 1018.09 1017.93 1017.81 1017.65 1017.41 1017.25 1017.09 1016.81 1016.69 1016.57 1016.45 1016.33 1016.17 1016.01 1015.85 1015.69 1015.53 1015.37 1015.17 1015.01 1014.73 1014.53 1014.33 1014.21 1014.17 1014.29 1014.45 1014.61 1014.77 1014.93 1015.09 1015.25 1015.41 1015.53 1015.65 1015.77 1015.93 1016.05 1016.13 1016.21 1016.33 1016.41 1016.49
1020.77 1020.81 1020.89 1020.73 1020.69 1020.49 1020.45 1020.49 1020.49 1020.49 1020.45 1020.49 1020.69 1020.77 1020.93 1021.05 1021.09 1021.33 1021.93 1022.49 1022.21 1020.77 1020.61 1020.17 1019.65 1019.29 1019.29 1018.85 1018.97 1018.73 1018.37 1018.01 1017.97 1017.85 1017.65 1017.41 1017.21 1016.97 1016.81 1016.65 1016.61 1016.49 1016.37 1016.25 1016.09 1015.89 1015.73 1015.57 1015.45 1015.29 1015.09 1014.81 1014.57 1014.33 1014.21 1014.21 1014.25 1014.37 1014.53 1014.69 1014.89 1015.05 1015.25 1015.41 1015.53 1015.65 1015.81 1015.97 1016.09 1016.21 1016.29 1016.37 1016.49 1016.61
1020.73 1020.81 1020.85 1020.69 1020.53 1020.45 1020.57 1020.49 1020.41 1020.37 1020.33 1020.41 1020.57 1020.65 1020.77 1020.93 1020.93 1021.25 1021.65 1022.13 1021.89 1020.85 1019.97 1020.13 1019.93 1019.29 1019.17 1019.21 1018.85 1018.93 1018.61 1018.33 1018.01 1017.77 1017.57 1017.37 1017.25 1017.13 1017.01 1016.77 1016.61 1016.53 1016.45 1016.33 1016.17 1015.97 1015.81 1015.65 1015.53 1015.41 1015.21 1014.97 1014.69 1014.45 1014.29 1014.21 1014.25 1014.29 1014.41 1014.65 1014.89 1015.09 1015.25 1015.37 1015.53 1015.65 1015.81 1015.93 1016.09 1016.21 1016.33 1016.41 1016.53 1016.61
1020.57 1020.65 1020.77 1020.65 1020.49 1020.37 1020.49 1020.45 1020.45 1020.29 1020.29 1020.33 1020.49 1020.61 1020.69 1020.81 1020.85 1020.73 1021.25 1021.53 1021.77 1021.61 1020.37 1020.17 1019.61 1019.53 1019.05 1019.61 1018.77 1019.05 1018.93 1018.61 1018.25 1018.13 1017.85 1017.45 1017.29 1017.29 1017.09 1016.93 1016.69 1016.61 1016.53 1016.41 1016.29 1016.09 1015.89 1015.73 1015.61 1015.49 1015.33 1015.09 1014.89 1014.57 1014.41 1014.29 1014.25 1014.25 1014.33 1014.57 1014.85 1015.13 1015.29 1015.41 1015.53 1015.65 1015.81 1015.93 1016.05 1016.21 1016.33 1016.45 1016.53 1016.61
1020.45 1020.65 1020.65 1020.57 1020.41 1020.29 1020.45 1020.37 1020.29 1020.17 1020.21 1020.13 1020.29 1020.33 1020.29 1020.49 1020.49 1020.57 1020.65 1021.17 1021.57 1021.41 1020.93 1020.17 1020.17 1019.77 1019.41 1019.49 1019.21 1018.85 1018.73 1018.57 1018.41 1018.45 1018.13 1017.89 1017.53 1017.25 1017.17 1017.05 1016.77 1016.69 1016.65 1016.49 1016.37 1016.17 1016.01 1015.85 1015.73 1015.57 1015.41 1015.25 1015.05 1014.85 1014.57 1014.41 1014.33 1014.37 1014.41 1014.49 1014.69 1014.97 1015.25 1015.45 1015.57 1015.69 1015.85 1015.97 1016.05 1016.17 1016.29 1016.41 1016.49 1016.57
1020.41 1020.49 1020.61 1020.41 1020.29 1020.25 1020.41 1020.33 1020.29 1020.17 1020.09 1020.17 1020.17 1020.17 1020.13 1020.21 1020.29 1020.25 1020.29 1020.45 1020.85 1020.97 1021.33 1020.45 1020.25 1019.73 1019.77 1019.37 1018.93 1018.85 1018.65 1018.69 1018.57 1018.45 1018.21 1017.81 1017.77 1017.57 1017.29 1017.17 1017.01 1016.81 1016.73 1016.57 1016.41 1016.25 1016.09 1015.97 1015.81 1015.69 1015.53 1015.37 1015.21 1015.09 1014.89 1014.65 1014.49 1014.41 1014.53 1014.65 1014.73 1014.85 1015.09 1015.37 1015.53 1015.69 1015.85 1015.97 1016.05 1016.13 1016.21 1016.33 1016.45 1016.53
1020.13 1020.21 1020.29 1020.13 1020.09 1020.09 1020.29 1020.17 1020.17 1020.01 1020.09 1020.01 1020.05 1020.09 1020.01 1020.09 1020.01 1020.01 1020.09 1020.25 1020.41 1020.85 1021.09 1020.77 1019.97 1019.77 1019.65 1019.33 1019.13 1019.01 1019.25 1018.93 1018.65 1018.49 1018.49 1018.29 1018.13 1017.89 1017.45 1017.17 1017.01 1016.89 1016.73 1016.57 1016.45 1016.29 1016.13 1016.05 1015.93 1015.85 1015.69 1015.53 1015.37 1015.25 1015.05 1014.89 1014.73 1014.65 1014.65 1014.77 1014.97 1015.05 1015.13 1015.29 1015.49 1015.65 1015.77 1015.93 1016.05 1016.13 1016.17 1016.25 1016.33 1016.41
1019.81 1019.89 1019.89 1019.81 1019.81 1019.93 1020.13 1020.05 1019.89 1019.89 1019.93 1019.89 1019.93 1019.97 1019.89 1019.85 1019.85 1019.97 1020.01 1020.05 1020.29 1020.49 1020.57 1020.65 1020.53 1019.89 1019.93 1019.77 1019.45 1019.13 1019.13 1019.33 1019.21 1018.93 1018.61 1018.29 1018.13 1018.25 1018.09 1017.61 1017.29 1017.01 1016.93 1016.81 1016.53 1016.33 1016.17 1016.13 1016.05 1016.01 1015.89 1015.73 1015.57 1015.41 1015.21 1015.09 1015.01 1014.93 1014.93 1014.97 1015.05 1015.21 1015.41 1015.57 1015.65 1015.73 1015.77 1015.81 1015.89 1015.97 1016.05 1016.13 1016.21 1016.33
1019.57 1019.57 1019.57 1019.57 1019.57 1019.69 1019.69 1019.73 1019.69 1019.69 1019.77 1019.81 1019.81 1019.73 1019.73 1019.69 1019.81 1019.85 1019.93 1019.97 1020.13 1020.25 1020.41 1020.37 1020.29 1020.25 1019.89 1019.93 1020.01 1019.21 1018.93 1019.01 1019.17 1019.53 1019.37 1019.25 1018.49 1018.33 1018.45 1018.33 1017.61 1017.29 1017.21 1016.85 1016.77 1016.65 1016.53 1016.37 1016.25 1016.17 1016.05 1015.93 1015.81 1015.65 1015.53 1015.41 1015.29 1015.17 1015.17 1015.17 1015.25 1015.37 1015.45 1015.57 1015.65 1015.69 1015.77 1015.81 1015.85 1015.85 1015.93 1015.97 1016.01 1016.13
1019.49 1019.41 1019.37 1019.33 1019.33 1019.33 1019.33 1019.41 1019.37 1019.45 1019.61 1019.57 1019.69 1019.49 1019.53 1019.61 1019.73 1019.81 1019.81 1019.93 1020.01 1020.13 1020.25 1020.33 1020.25 1020.17 1020.17 1019.85 1019.57 1019.21 1019.05 1019.29 1019.33 1019.21 1019.61 1019.93 1019.57 1019.01 1018.53 1018.33 1018.37 1017.85 1017.53 1017.45 1017.01 1016.65 1016.49 1016.37 1016.33 1016.21 1016.09 1016.09 1016.05 1015.93 1015.73 1015.77 1015.61 1015.53 1015.41 1015.33 1015.37 1015.45 1015.49 1015.53 1015.57 1015.65 1015.73 1015.77 1015.81 1015.89 1015.89 1015.93 1015.97 1016.01
1019.37 1019.33 1019.25 1019.17 1019.09 1019.01 1018.97 1018.97 1018.97 1019.01 1019.05 1019.33 1019.53 1019.29 1019.29 1019.45 1019.57 1019.61 1019.73 1019.81 1019.89 1019.93 1020.05 1020.13 1020.13 1020.21 1020.13 1019.97 1019.89 1019.77 1019.73 1019.93 1020.01 1019.41 1019.33 1019.57 1019.33 1019.13 1018.93 1018.41 1018.01 1017.97 1018.01 1017.69 1017.41 1017.25 1017.01 1016.97 1016.85 1016.61 1016.53 1016.41 1016.17 1016.17 1016.13 1016.01 1015.97 1015.93 1015.73 1015.65 1015.61 1015.57 1015.61 1015.61 1015.69 1015.77 1015.81 1015.85 1015.89 1015.89 1015.97 1016.01 1016.01 1016.01
1019.21 1019.13 1019.05 1018.93 1018.85 1018.81 1018.73 1018.65 1018.61 1018.65 1018.65 1018.65 1018.77 1018.93 1019.09 1019.25 1019.41 1019.53 1019.61 1019.69 1019.65 1019.73 1020.01 1019.97 1019.97 1020.17 1020.05 1019.89 1019.77 1019.89 1019.61 1019.37 1019.21 1019.33 1019.37 1019.65 1019.37 1019.13 1018.97 1018.69 1018.37 1017.93 1017.89 1018.09 1018.13 1017.65 1017.09 1017.21 1017.17 1016.97 1017.01 1016.69 1016.53 1016.61 1016.49 1016.65 1016.49 1016.29 1016.05 1015.93 1015.85 1015.77 1015.73 1015.69 1015.69 1015.69 1015.77 1015.81 1015.77 1015.77 1015.73 1015.77 1015.85 1015.93
1019.13 1018.97 1018.85 1018.73 1018.65 1018.61 1018.57 1018.45 1018.41 1018.45 1018.45 1018.49 1018.49 1018.45 1018.49 1018.53 1018.81 1019.17 1019.45 1019.45 1019.37 1019.53 1019.61 1019.57 1019.77 1019.89 1019.89 1019.61 1019.45 1019.53 1019.33 1019.17 1019.29 1019.37 1019.37 1019.53 1019.49 1019.69 1019.81 1019.93 1018.81 1017.85 1018.09 1018.29 1018.37 1018.13 1017.41 1017.33 1017.73 1017.45 1017.25 1017.01 1016.97 1016.89 1017.09 1016.89 1016.57 1016.49 1016.33 1016.21 1016.13 1016.01 1015.85 1015.77 1015.65 1015.61 1015.61 1015.61 1015.69 1015.73 1015.77 1015.73 1015.65 1015.65
1018.85 1018.77 1018.69 1018.53 1018.41 1018.41 1018.41 1018.37 1018.37 1018.37 1018.33 1018.37 1018.37 1018.33 1018.29 1018.25 1018.13 1018.13 1018.45 1018.85 1019.25 1019.29 1019.37 1019.53 1019.45 1019.53 1019.57 1019.41 1019.25 1019.25 1019.25 1019.21 1019.13 1019.05 1019.25 1019.37 1019.49 1019.65 1019.69 1019.69 1019.97 1018.61 1017.97 1018.45 1018.57 1018.53 1017.65 1017.45 1017.65 1017.73 1017.53 1017.21 1017.17 1017.37 1017.21 1016.89 1016.81 1016.69 1016.57 1016.45 1016.33 1016.25 1016.09 1015.93 1015.77 1015.61 1015.49 1015.37 1015.33 1015.37 1015.53 1015.53 1015.49 1015.57
1018.65 1018.61 1018.53 1018.41 1018.17 1018.09 1018.05 1018.09 1018.25 1018.33 1018.33 1018.21 1018.21 1018.21 1018.17 1018.01 1017.93 1017.97 1017.93 1017.85 1018.05 1018.25 1018.73 1019.01 1019.17 1019.09 1019.01 1019.17 1019.01 1018.77 1018.85 1018.77 1019.17 1018.93 1019.05 1019.13 1019.29 1019.37 1019.53 1019.53 1019.37 1018.85 1018.09 1018.41 1018.69 1018.97 1018.25 1017.85 1018.01 1018.01 1017.69 1017.41 1017.37 1017.37 1017.29 1017.21 1017.09 1016.97 1016.81 1016.73 1016.61 1016.45 1016.29 1016.13 1015.97 1015.81 1015.65 1015.49 1015.37 1015.33 1015.41 1015.49 1015.61 1015.73
1018.33 1018.29 1018.33 1018.33 1018.21 1017.97 1017.93 1018.01 1018.09 1018.17 1018.21 1018.25 1018.29 1018.25 1018.17 1018.13 1017.89 1017.81 1017.77 1017.81 1017.81 1017.77 1018.01 1018.33 1018.69 1018.33 1018.29 1018.57 1018.45 1018.29 1018.29 1018.77 1018.85 1018.85 1018.93 1018.93 1019.21 1019.25 1019.29 1019.01 1018.93 1018.57 1018.17 1018.73 1018.81 1019.17 1018.61 1018.13 1018.17 1018.29 1017.93 1017.49 1017.53 1017.61 1017.69 1017.49 1017.41 1017.29 1017.17 1017.05 1016.93 1016.77 1016.61 1016.45 1016.29 1016.09 1015.93 1015.77 1015.65 1015.53 1015.45 1015.45 1015.49 1015.57
1017.97 1017.85 1017.85 1017.93 1017.97 1017.85 1017.85 1017.81 1017.93 1018.05 1018.13 1018.21 1018.25 1018.25 1018.21 1018.17 1018.05 1017.93 1017.85 1017.77 1017.73 1017.77 1017.73 1017.81 1017.89 1017.89 1017.89 1017.97 1018.01 1018.05 1018.09 1018.25 1018.29 1018.37 1018.57 1018.65 1018.81 1018.77 1018.61 1018.65 1018.57 1018.53 1018.25 1018.37 1018.61 1019.81 1019.01 1018.33 1018.45 1018.45 1018.13 1017.77 1017.81 1017.69 1017.73 1017.77 1017.69 1017.61 1017.45 1017.33 1017.21 1017.05 1016.89 1016.77 1016.61 1016.45 1016.29 1016.17 1016.01 1015.89 1015.73 1015.65 1015.61 1015.65
1017.97 1017.85 1017.77 1017.77 1017.89 1018.17 1018.57 1018.41 1018.05 1017.89 1017.93 1018.13 1018.17 1018.25 1018.21 1018.17 1018.17 1018.09 1017.89 1017.77 1017.53 1017.49 1017.53 1017.57 1017.65 1017.65 1017.65 1017.69 1017.77 1017.81 1017.93 1018.01 1018.09 1018.21 1018.21 1018.37 1018.65 1018.89 1019.05 1019.41 1019.01 1019.05 1018.49 1018.41 1018.85 1019.41 1019.33 1018.65 1018.85 1018.69 1018.17 1017.93 1018.21 1018.01 1017.89 1017.93 1017.93 1017.85 1017.73 1017.57 1017.45 1017.29 1017.13 1017.01 1016.89 1016.77 1016.61 1016.49 1016.33 1016.17 1016.05 1015.93 1015.85 1015.85
1017.81 1017.73 1017.81 1018.01 1018.21 1018.29 1018.53 1018.69 1018.81 1018.65 1018.13 1018.05 1018.13 1018.17 1018.21 1018.21 1018.33 1018.37 1018.05 1017.89 1017.77 1017.69 1017.65 1017.69 1017.69 1017.73 1017.73 1017.77 1017.77 1017.81 1017.81 1017.85 1017.89 1018.17 1018.57 1018.85 1018.61 1018.97 1019.33 1019.45 1019.33 1019.37 1018.85 1018.57 1018.73 1019.13 1019.53 1018.97 1019.01 1018.85 1018.49 1018.41 1018.49 1018.45 1018.33 1018.09 1018.09 1018.05 1017.93 1017.85 1017.69 1017.57 1017.41 1017.25 1017.13 1017.01 1016.89 1016.73 1016.61 1016.45 1016.25 1016.09 1015.97 1015.93
1017.69 1017.57 1017.45 1017.53 1017.65 1017.65 1017.77 1017.85 1018.01 1017.97 1018.09 1018.21 1018.05 1018.05 1018.17 1018.29 1018.45 1018.41 1018.21 1018.09 1017.93 1017.81 1017.77 1017.81 1017.77 1017.73 1017.73 1017.73 1017.69 1017.65 1017.65 1017.73 1017.77 1018.01 1018.69 1018.49 1018.49 1018.97 1019.09 1019.45 1019.37 1019.33 1019.01 1018.89 1018.53 1019.17 1019.73 1019.09 1018.85 1018.97 1018.61 1018.49 1018.53 1018.61 1018.57 1018.45 1018.25 1018.09 1018.05 1018.01 1017.97 1017.85 1017.69 1017.53 1017.33 1017.21 1017.13 1017.05 1016.93 1016.73 1016.53 1016.37 1016.13 1015.97
1017.85 1017.65 1017.53 1017.49 1017.49 1017.41 1017.29 1017.45 1017.61 1017.65 1017.57 1017.61 1017.69 1017.85 1018.05 1018.25 1018.33 1018.25 1018.25 1018.25 1018.21 1018.05 1018.01 1017.89 1017.77 1017.77 1017.69 1017.61 1017.57 1017.53 1017.57 1017.65 1017.69 1017.69 1017.89 1018.13 1018.41 1018.93 1019.05 1019.17 1019.33 1019.69 1019.45 1018.85 1018.49 1019.37 1019.65 1019.37 1019.13 1019.05 1019.05 1019.45 1018.93 1018.65 1018.77 1018.73 1018.53 1018.37 1018.25 1018.17 1018.09 1018.09 1017.93 1017.77 1017.57 1017.41 1017.33 1017.25 1017.17 1017.05 1016.97 1016.73 1016.45 1016.33
1017.89 1017.77 1017.65 1017.57 1017.45 1017.29 1017.09 1017.33 1017.57 1017.61 1017.45 1017.29 1017.33 1017.53 1017.85 1018.09 1018.13 1018.01 1018.25 1018.25 1018.25 1018.21 1018.09 1018.05 1017.97 1017.89 1017.77 1017.69 1017.57 1017.53 1017.53 1017.57 1017.57 1017.65 1017.73 1017.89 1018.09 1018.61 1018.97 1019.13 1019.25 1019.73 1019.77 1018.93 1018.61 1019.21 1019.49 1019.33 1019.41 1019.01 1019.17 1019.65 1019.97 1019.21 1018.85 1018.93 1018.81 1018.61 1018.49 1018.37 1018.29 1018.21 1018.05 1017.85 1017.77 1017.69 1017.57 1017.45 1017.41 1017.29 1017.21 1017.09 1016.85 1016.61
1018.57 1018.29 1018.17 1018.21 1018.69 1019.01 1018.85 1018.41 1018.33 1018.21 1017.89 1017.61 1017.49 1017.49 1017.69 1017.77 1017.81 1017.85 1018.13 1018.21 1018.21 1018.21 1018.17 1018.09 1017.97 1017.89 1017.81 1017.81 1017.73 1017.73 1017.73 1017.69 1017.65 1017.73 1017.81 1017.89 1017.93 1018.25 1018.77 1019.17 1019.37 1019.53 1019.41 1018.97 1018.73 1018.97 1019.65 1019.45 1019.49 1019.25 1019.25 1019.25 1019.49 1019.49 1019.21 1019.09 1018.93 1018.85 1018.73 1018.65 1018.69 1018.49 1018.25 1018.17 1018.05 1017.97 1017.81 1017.65 1017.57 1017.53 1017.45 1017.37 1017.21 1017.05
1018.89 1018.81 1018.81 1018.89 1018.97 1019.05 1019.33 1019.17 1018.85 1019.01 1018.77 1018.17 1017.81 1017.77 1017.85 1017.93 1017.97 1018.01 1018.09 1018.25 1018.37 1018.53 1018.49 1018.37 1018.13 1018.05 1018.01 1018.01 1018.01 1018.05 1018.01 1017.93 1017.89 1017.93 1018.05 1018.17 1018.21 1018.21 1018.25 1018.49 1019.01 1019.57 1019.69 1018.97 1018.77 1018.93 1019.25 1019.69 1019.53 1019.57 1019.53 1019.57 1019.69 1019.53 1019.57 1019.41 1019.21 1019.13 1018.81 1018.73 1018.73 1018.77 1018.57 1018.53 1018.33 1018.25 1018.13 1017.97 1017.81 1017.77 1017.65 1017.53 1017.41 1017.33
1019.13 1019.09 1018.97 1018.81 1018.69 1018.61 1018.81 1019.17 1019.13 1018.97 1018.89 1018.69 1018.29 1018.17 1018.21 1018.21 1018.21 1018.21 1018.41 1018.61 1018.85 1019.05 1019.01 1018.81 1018.61 1018.45 1018.29 1018.25 1018.37 1018.37 1018.37 1018.25 1018.17 1018.17 1018.25 1018.33 1018.37 1018.41 1018.45 1018.49 1018.57 1019.01 1019.21 1019.09 1018.89 1018.89 1019.01 1019.53 1019.49 1019.57 1019.69 1019.57 1019.73 1019.69 1019.73 1019.81 1019.61 1019.21 1019.05 1018.97 1018.89 1018.81 1018.69 1018.61 1018.65 1018.57 1018.41 1018.29 1018.13 1017.93 1017.65 1017.53 1017.49 1017.37
1018.97 1018.89 1018.85 1018.77 1018.89 1018.97 1018.65 1018.73 1018.77 1018.69 1018.53 1018.33 1018.13 1018.33 1018.37 1018.45 1018.45 1018.49 1018.65 1018.77 1019.01 1019.17 1019.25 1019.17 1018.89 1018.65 1018.45 1018.37 1018.45 1018.53 1018.45 1018.57 1018.61 1018.61 1018.61 1018.61 1018.69 1018.73 1018.81 1018.85 1018.97 1019.09 1019.17 1019.21 1019.13 1019.09 1019.09 1019.37 1019.57 1019.49 1019.45 1019.53 1019.77 1019.97 1019.97 1019.69 1019.53 1019.45 1019.41 1019.09 1018.89 1018.85 1018.81 1018.73 1018.77 1018.69 1018.53 1018.37 1018.25 1018.05 1017.89 1017.73 1017.49 1017.37
1018.85 1018.69 1018.61 1018.61 1018.37 1018.37 1018.21 1018.29 1018.29 1018.29 1018.21 1018.13 1017.97 1018.29 1018.69 1018.61 1018.37 1018.29 1018.33 1018.37 1018.61 1019.21 1019.49 1019.17 1018.81 1018.65 1018.53 1018.41 1018.53 1018.45 1018.41 1018.49 1018.49 1018.73 1018.89 1018.89 1018.97 1019.01 1019.01 1019.21 1019.29 1019.33 1019.25 1019.25 1019.25 1019.29 1019.33 1019.41 1019.57 1019.49 1019.45 1019.53 1019.65 1019.89 1019.81 1020.01 1019.85 1019.69 1019.49 1019.33 1019.21 1018.97 1018.89 1018.85 1018.81 1018.85 1018.73 1018.57 1018.49 1018.33 1018.25 1018.09 1017.85 1017.61
1018.97 1018.77 1018.49 1018.29 1018.17 1018.13 1018.09 1017.97 1017.97 1017.89 1017.53 1017.41 1017.69 1018.01 1018.45 1018.57 1018.49 1018.25 1018.21 1018.05 1018.25 1018.61 1019.13 1019.29 1019.17 1019.25 1019.01 1018.85 1018.73 1018.65 1018.61 1019.05 1019.29 1019.01 1019.13 1019.21 1019.37 1019.29 1019.37 1019.45 1019.65 1019.57 1019.49 1019.45 1019.37 1019.45 1019.45 1019.53 1019.61 1019.65 1019.65 1019.69 1019.69 1019.85 1019.89 1019.89 1020.01 1019.85 1019.65 1019.61 1019.45 1018.93 1018.85 1018.89 1018.85 1018.81 1018.77 1018.73 1018.57 1018.49 1018.29 1018.13 1017.97 1017.77
1018.97 1018.65 1018.45 1018.29 1018.17 1018.01 1017.73 1017.65 1017.57 1017.53 1017.53 1017.69 1017.93 1018.09 1018.25 1018.37 1018.37 1018.29 1018.37 1018.49 1018.49 1018.49 1018.85 1019.17 1019.25 1019.05 1019.05 1018.85 1018.77 1019.13 1019.21 1019.29 1019.45 1019.29 1019.29 1019.33 1019.53 1019.49 1019.53 1019.61 1020.01 1020.05 1019.97 1019.77 1019.73 1019.73 1019.73 1019.77 1019.77 1019.77 1019.97 1019.97 1019.85 1019.89 1019.89 1019.85 1019.97 1019.89 1019.81 1019.69 1019.61 1019.85 1019.33 1019.01 1018.93 1018.89 1018.81 1018.69 1018.57 1018.45 1018.33 1018.13 1017.89 1017.69
1019.05 1018.53 1018.21 1018.13 1018.05 1017.85 1017.65 1017.61 1017.65 1017.85 1017.93 1017.97 1018.13 1018.29 1018.41 1018.49 1018.41 1018.41 1018.53 1018.57 1018.61 1018.85 1018.97 1019.09 1019.01 1019.09 1019.21 1019.33 1019.45 1019.49 1019.61 1019.81 1019.89 1019.73 1019.77 1019.77 1019.81 1019.73 1019.65 1019.97 1020.41 1020.37 1020.33 1020.21 1020.13 1020.05 1019.97 1020.01 1020.01 1019.97 1020.05 1020.13 1020.13 1020.01 1020.01 1019.97 1020.01 1020.01 1019.93 1019.77 1019.69 1019.53 1019.37 1019.33 1019.17 1019.01 1018.89 1018.77 1018.65 1018.57 1018.49 1018.25 1018.01 1017.77
1019.01 1018.53 1018.29 1018.29 1018.29 1018.25 1018.25 1018.25 1018.37 1018.45 1018.45 1018.61 1018.65 1018.77 1018.89 1018.85 1018.89 1018.93 1018.97 1019.13 1019.25 1019.25 1019.21 1019.37 1019.37 1019.49 1019.53 1019.69 1019.69 1019.73 1019.97 1020.21 1020.33 1020.17 1020.17 1020.13 1020.13 1020.09 1020.01 1020.45 1020.69 1020.73 1020.73 1020.77 1020.73 1020.57 1020.45 1020.37 1020.21 1020.17 1020.13 1020.09 1020.01 1020.01 1020.01 1020.09 1020.05 1020.01 1020.01 1019.85 1019.73 1019.65 1019.45 1019.33 1019.29 1019.21 1019.01 1018.89 1018.85 1018.65 1018.53 1018.33 1018.09 1017.93
1019.25 1018.89 1018.85 1018.89 1018.89 1018.93 1018.85 1018.81 1018.85 1019.01 1019.09 1019.21 1019.33 1019.45 1019.49 1019.49 1019.61 1019.57 1019.49 1019.49 1019.61 1019.57 1019.61 1019.65 1019.65 1019.81 1019.85 1020.05 1020.17 1020.33 1020.57 1020.73 1020.73 1020.77 1020.65 1020.73 1020.57 1020.57 1020.73 1020.89 1021.09 1021.09 1021.09 1021.13 1021.13 1021.09 1020.97 1020.93 1020.73 1020.49 1020.29 1020.17 1020.13 1020.13 1020.09 1020.25 1020.33 1020.21 1020.09 1019.93 1019.81 1019.77 1019.57 1019.45 1019.37 1019.29 1019.21 1019.13 1019.01 1018.81 1018.57 1018.37 1018.13 1017.93
1019.25 1019.25 1019.33 1019.49 1019.45 1019.45 1019.37 1019.45 1019.61 1019.57 1019.65 1019.93 1019.97 1020.09 1020.13 1020.17 1020.25 1020.33 1020.33 1020.29 1020.09 1020.01 1020.05 1020.09 1020.09 1020.13 1020.25 1020.53 1020.69 1020.89 1021.13 1021.25 1021.33 1021.29 1021.21 1021.13 1021.09 1021.13 1021.21 1021.25 1021.33 1021.41 1021.41 1021.41 1021.53 1021.61 1021.49 1021.37 1021.17 1020.89 1020.73 1020.61 1020.37 1020.21 1020.13 1020.21 1020.37 1020.37 1020.17 1020.01 1019.93 1019.85 1019.69 1019.57 1019.53 1019.37 1019.29 1019.17 1019.01 1019.01 1018.61 1018.33 1018.17 1017.93
1019.69 1019.69 1019.77 1019.89 1019.93 1019.85 1019.89 1020.05 1020.01 1019.93 1020.09 1020.25 1020.29 1020.41 1020.61 1020.97 1021.01 1020.97 1021.17 1021.13 1020.85 1020.81 1020.73 1020.77 1020.81 1020.89 1021.05 1021.21 1021.37 1021.53 1021.69 1021.81 1021.89 1021.89 1021.81 1021.69 1021.61 1021.57 1021.49 1021.61 1021.69 1021.77 1021.77 1021.85 1021.89 1021.85 1021.77 1021.61 1021.53 1021.37 1021.09 1020.85 1020.65 1020.45 1020.33 1020.29 1020.41 1020.53 1020.45 1020.25 1019.97 1019.89 1019.73 1019.69 1019.57 1019.41 1019.21 1019.09 1018.97 1018.85 1018.69 1018.49 1018.21 1017.93
1020.17 1020.17 1020.17 1020.25 1020.29 1020.29 1020.45 1020.49 1020.45 1020.49 1020.57 1020.73 1020.85 1020.89 1021.05 1021.37 1021.61 1021.61 1021.65 1021.49 1021.41 1021.45 1021.53 1021.45 1021.53 1021.61 1021.73 1021.81 1021.93 1022.05 1022.17 1022.25 1022.37 1022.33 1022.29 1022.21 1022.13 1022.09 1022.05 1022.05 1022.09 1022.09 1022.05 1022.05 1022.01 1022.01 1021.97 1021.85 1021.81 1021.73 1021.53 1021.09 1020.85 1020.73 1020.45 1020.41 1020.45 1020.41 1020.45 1020.33 1020.01 1019.73 1019.73 1019.65 1019.49 1019.33 1019.13 1019.05 1018.89 1018.73 1018.73 1018.57 1018.29 1018.01
1020.53 1020.57 1020.65 1020.77 1020.81 1020.81 1020.85 1020.89 1020.93 1021.05 1021.21 1021.33 1021.45 1021.57 1021.65 1021.85 1022.01 1022.09 1021.97 1021.85 1021.97 1022.05 1022.05 1022.05 1022.17 1022.21 1022.25 1022.25 1022.29 1022.41 1022.49 1022.57 1022.57 1022.57 1022.53 1022.49 1022.45 1022.37 1022.29 1022.25 1022.29 1022.33 1022.29 1022.17 1022.17 1022.17 1022.17 1022.13 1022.09 1022.05 1021.89 1021.69 1021.41 1021.01 1020.85 1020.69 1020.81 1020.37 1020.25 1020.33 1020.09 1019.85 1019.65 1019.65 1019.45 1019.33 1019.17 1018.89 1018.85 1018.77 1018.65 1018.49 1018.33 1018.09
1020.85 1021.01 1021.09 1021.21 1021.29 1021.25 1021.37 1021.49 1021.53 1021.69 1021.77 1021.73 1021.81 1021.97 1022.13 1022.25 1022.33 1022.37 1022.33 1022.41 1022.53 1022.57 1022.57 1022.61 1022.69 1022.77 1022.81 1022.81 1022.81 1022.89 1022.93 1022.93 1022.89 1022.85 1022.77 1022.65 1022.61 1022.61 1022.49 1022.41 1022.37 1022.37 1022.37 1022.21 1022.21 1022.25 1022.25 1022.29 1022.25 1022.17 1022.09 1022.09 1021.93 1021.69 1021.57 1021.45 1020.97 1020.61 1020.29 1020.13 1020.13 1020.05 1019.81 1019.77 1019.57 1019.33 1019.13 1018.93 1018.77 1018.69 1018.49 1018.33 1018.21 1018.05
1021.33 1021.33 1021.49 1021.57 1021.69 1021.73 1021.81 1021.85 1021.93 1022.01 1022.13 1022.29 1022.45 1022.53 1022.57 1022.73 1022.81 1022.81 1022.85 1022.89 1022.97 1023.09 1023.13 1023.25 1023.33 1023.33 1023.41 1023.37 1023.33 1023.37 1023.45 1023.45 1023.41 1023.29 1023.21 1023.09 1022.89 1022.81 1022.69 1022.57 1022.53 1022.57 1022.53 1022.37 1022.37 1022.37 1022.37 1022.33 1022.29 1022.13 1022.01 1021.89 1021.73 1021.49 1021.29 1021.13 1020.85 1020.49 1020.17 1019.97 1020.01 1020.09 1020.01 1019.81 1019.65 1019.49 1019.25 1019.05 1018.93 1018.69 1018.49 1018.29 1018.25 1018.05
1021.85 1021.93 1022.05 1022.05 1022.13 1022.17 1022.25 1022.37 1022.45 1022.49 1022.65 1022.73 1022.85 1022.97 1023.05 1023.13 1023.13 1023.21 1023.33 1023.41 1023.45 1023.53 1023.61 1023.73 1023.77 1023.81 1023.85 1023.81 1023.77 1023.73 1023.73 1023.73 1023.65 1023.45 1023.29 1023.33 1023.25 1023.09 1023.01 1022.89 1022.77 1022.65 1022.73 1022.61 1022.61 1022.57 1022.49 1022.41 1022.25 1022.05 1021.89 1021.69 1021.45 1021.21 1020.97 1020.73 1020.65 1020.41 1020.25 1019.93 1019.73 1019.65 1019.61 1019.61 1019.61 1019.53 1019.37 1019.13 1018.93 1018.77 1018.61 1018.49 1018.41 1018.17
1022.37 1022.49 1022.57 1022.53 1022.61 1022.65 1022.69 1022.81 1022.89 1023.01 1023.17 1023.25 1023.29 1023.41 1023.49 1023.53 1023.61 1023.65 1023.65 1023.77 1023.81 1023.85 1023.97 1024.05 1024.05 1024.05 1024.09 1024.09 1024.01 1023.93 1023.85 1023.85 1023.85 1023.77 1023.65 1023.57 1023.53 1023.41 1023.29 1023.09 1022.97 1022.81 1022.89 1022.85 1022.81 1022.69 1022.45 1022.33 1022.17 1022.01 1021.85 1021.65 1021.41 1021.29 1021.17 1020.89 1020.73 1020.45 1020.29 1019.97 1019.65 1019.49 1019.45 1019.41 1019.37 1019.37 1019.33 1019.21 1019.09 1018.93 1018.81 1018.53 1018.41 1018.33
1022.77 1022.89 1022.97 1023.01 1023.01 1023.09 1023.13 1023.21 1023.25 1023.33 1023.49 1023.53 1023.69 1023.73 1023.77 1023.89 1023.97 1024.01 1024.05 1024.21 1024.25 1024.25 1024.33 1024.33 1024.33 1024.33 1024.29 1024.29 1024.25 1024.13 1024.01 1023.93 1023.97 1024.01 1023.93 1023.77 1023.65 1023.61 1023.45 1023.29 1023.13 1023.05 1022.93 1022.81 1022.69 1022.57 1022.41 1022.29 1022.17 1022.01 1021.81 1021.65 1021.45 1021.25 1021.17 1020.93 1020.77 1020.53 1020.29 1020.05 1019.89 1019.73 1019.49 1019.33 1019.25 1019.21 1019.13 1019.05 1019.05 1019.09 1019.09 1018.97 1018.77 1018.89
1023.05 1023.09 1023.25 1023.29 1023.33 1023.41 1023.41 1023.45 1023.49 1023.53 1023.61 1023.73 1023.85 1023.97 1024.05 1024.21 1024.41 1024.49 1024.49 1024.53 1024.53 1024.57 1024.57 1024.61 1024.61 1024.57 1024.49 1024.37 1024.37 1024.33 1024.21 1024.13 1024.17 1024.21 1024.05 1023.85 1023.77 1023.61 1023.45 1023.33 1023.13 1023.01 1022.85 1022.73 1022.69 1022.49 1022.33 1022.21 1022.05 1021.93 1021.77 1021.53 1021.29 1021.17 1021.05 1020.85 1020.65 1020.41 1020.29 1020.21 1020.01 1019.85 1019.65 1019.41 1019.13 1018.97 1018.89 1018.89 1018.93 1018.93 1018.89 1018.85 1018.85 1018.85
1023.33 1023.37 1023.45 1023.57 1023.61 1023.65 1023.73 1023.73 1023.77 1023.85 1023.85 1023.93 1024.01 1024.13 1024.25 1024.41 1024.57 1024.69 1024.77 1024.77 1024.81 1024.85 1024.85 1024.85 1024.85 1024.81 1024.69 1024.57 1024.57 1024.61 1024.45 1024.33 1024.41 1024.25 1024.09 1023.97 1023.81 1023.69 1023.53 1023.37 1023.13 1022.97 1022.89 1022.85 1022.81 1022.53 1022.37 1022.25 1022.01 1021.81 1021.65 1021.37 1021.21 1021.13 1020.93 1020.81 1020.69 1020.41 1020.25 1020.13 1020.01 1019.85 1019.61 1019.49 1019.49 1019.29 1019.05 1018.81 1018.77 1018.85 1018.77 1018.73 1018.61 1018.49
Thickness
5769 5770 5770 5770 5771 5772 5772 5772 5771 5770 5770 5768 5767 5766 5763 5758 5752 5750 5751 5754 5760 5768 5770 5771 5776 5781 5782 5780 5781 5782 5782 5784 5784 5785 5785 5786 5786 5786 5786 5787 5788 5788 5788 5787 5788 5788 5788 5789 5789 5791 5791 5793 5793 5793 5792 5790 5788 5786 5783 5780 5778 5776 5774 5772 5770 5768 5765 5763 5760 5758 5756 5754 5752 5750
5770 5770 5771 5771 5771 5773 5773 5772 5772 5771 5770 5769 5769 5767 5767 5764 5758 5752 5750 5752 5759 5765 5768 5771 5774 5778 5780 5780 5780 5781 5782 5783 5784 5784 5785 5786 5786 5786 5786 5787 5787 5787 5787 5788 5788 5789 5789 5789 5790 5791 5792 5793 5793 5794 5793 5792 5790 5787 5784 5782 5780 5777 5776 5773 5772 5769 5767 5764 5762 5759 5757 5755 5753 5751
5771 5770 5770 5770 5771 5772 5772 5772 5771 5772 5771 5770 5769 5768 5767 5765 5763 5759 5753 5751 5758 5765 5766 5771 5776 5777 5778 5779 5779 5780 5781 5782 5783 5783 5784 5785 5786 5786 5786 5787 5787 5787 5787 5788 5788 5789 5789 5790 5790 5791 5792 5793 5794 5794 5794 5793 5791 5788 5786 5783 5781 5779 5777 5775 5772 5770 5767 5765 5763 5761 5758 5756 5754 5752
5770 5769 5769 5770 5771 5771 5771 5771 5771 5771 5771 5771 5770 5768 5767 5766 5764 5762 5757 5751 5757 5766 5768 5770 5775 5777 5777 5777 5778 5779 5781 5782 5782 5783 5784 5785 5786 5786 5786 5786 5786 5786 5787 5787 5788 5788 5789 5789 5790 5791 5791 5792 5794 5794 5795 5794 5792 5790 5787 5785 5782 5780 5778 5776 5773 5771 5769 5767 5764 5762 5760 5758 5756 5754
5770 5769 5769 5769 5770 5771 5770 5770 5771 5771 5771 5771 5770 5769 5768 5767 5765 5763 5760 5755 5756 5765 5771 5771 5773 5775 5776 5775 5777 5778 5779 5781 5782 5782 5784 5785 5785 5784 5784 5785 5786 5785 5785 5786 5786 5787 5788 5789 5789 5789 5790 5791 5793 5794 5794 5794 5793 5791 5789 5786 5783 5781 5779 5777 5774 5772 5769 5767 5765 5763 5761 5759 5758 5756
5770 5769 5768 5769 5771 5771 5770 5770 5770 5771 5772 5771 5770 5769 5768 5767 5767 5766 5763 5759 5757 5760 5767 5770 5771 5774 5775 5773 5776 5777 5777 5779 5780 5781 5782 5784 5783 5783 5784 5785 5785 5785 5785 5784 5785 5786 5787 5788 5788 5789 5790 5790 5791 5793 5794 5794 5793 5792 5790 5788 5784 5782 5780 5778 5775 5772 5770 5768 5765 5764 5762 5760 5759 5757
5770 5769 5769 5769 5770 5771 5770 5770 5771 5771 5771 5771 5770 5770 5770 5768 5768 5768 5766 5763 5759 5759 5764 5768 5769 5771 5773 5773 5775 5777 5777 5778 5778 5779 5781 5782 5782 5782 5782 5783 5783 5783 5783 5783 5783 5785 5785 5786 5787 5788 5788 5789 5790 5791 5793 5793 5793 5792 5790 5788 5787 5784 5781 5778 5776 5773 5771 5768 5766 5765 5762 5761 5760 5758
5771 5770 5769 5769 5771 5771 5769 5769 5771 5771 5771 5771 5770 5770 5771 5770 5769 5769 5768 5766 5764 5762 5762 5765 5768 5770 5771 5773 5775 5776 5776 5777 5777 5777 5778 5779 5780 5780 5780 5781 5782 5781 5782 5782 5782 5783 5784 5785 5786 5786 5786 5787 5788 5789 5790 5791 5791 5791 5790 5788 5787 5785 5782 5780 5777 5775 5772 5769 5767 5766 5764 5762 5760 5760
5771 5771 5770 5771 5772 5771 5770 5769 5770 5771 5771 5771 5771 5770 5771 5771 5770 5770 5769 5768 5767 5764 5761 5764 5767 5770 5770 5772 5774 5775 5773 5773 5775 5776 5777 5778 5777 5777 5778 5780 5780 5779 5780 5781 5781 5782 5783 5783 5783 5784 5785 5785 5786 5787 5788 5789 5789 5790 5789 5787 5786 5784 5782 5780 5777 5775 5773 5771 5769 5767 5766 5764 5763 5761
5773 5773 5772 5772 5773 5771 5770 5770 5771 5771 5771 5770 5770 5770 5770 5771 5770 5770 5769 5768 5767 5765 5763 5763 5765 5767 5768 5768 5771 5773 5772 5770 5770 5771 5773 5776 5776 5774 5774 5777 5778 5777 5777 5778 5779 5780 5780 5781 5781 5781 5782 5783 5784 5785 5786 5786 5787 5787 5787 5786 5784 5782 5780 5778 5776 5774 5773 5771 5770 5769 5767 5766 5764 5762
5774 5774 5774 5773 5774 5772 5772 5772 5772 5771 5771 5770 5770 5771 5771 5771 5770 5769 5769 5768 5767 5765 5764 5764 5763 5765 5766 5767 5768 5772 5773 5770 5768 5767 5766 5768 5772 5772 5770 5772 5775 5775 5775 5776 5777 5777 5777 5778 5778 5778 5779 5779 5781 5782 5783 5783 5784 5785 5784 5784 5782 5781 5779 5778 5776 5774 5773 5771 5771 5770 5769 5768 5766 5765
5773 5773 5774 5774 5774 5774 5774 5773 5773 5772 5771 5770 5770 5771 5772 5771 5770 5769 5768 5768 5767 5766 5764 5764 5764 5764 5764 5765 5767 5769 5769 5767 5765 5765 5762 5761 5765 5768 5768 5769 5771 5772 5772 5773 5774 5775 5775 5775 5776 5776 5776 5776 5778 5778 5779 5780 5780 5781 5781 5781 5780 5779 5778 5777 5776 5774 5773 5771 5770 5769 5769 5768 5767 5766
5772 5772 5773 5774 5775 5775 5776 5775 5774 5774 5774 5772 5771 5771 5771 5770 5769 5769 5768 5767 5767 5765 5764 5763 5764 5763 5763 5764 5764 5764 5764 5761 5761 5764 5762 5760 5761 5764 5765 5766 5768 5769 5769 5770 5771 5771 5772 5772 5772 5773 5773 5773 5773 5775 5776 5776 5776 5777 5777 5777 5776 5776 5775 5775 5774 5773 5772 5771 5770 5769 5768 5767 5766 5765
5771 5772 5773 5774 5775 5775 5776 5775 5775 5775 5775 5774 5773 5772 5772 5770 5769 5767 5767 5767 5766 5765 5764 5763 5763 5762 5762 5763 5763 5761 5762 5763 5762 5762 5760 5758 5760 5761 5761 5762 5765 5768 5767 5766 5766 5767 5769 5769 5768 5769 5769 5769 5770 5770 5771 5771 5772 5773 5773 5773 5773 5773 5773 5773 5772 5772 5771 5770 5770 5770 5769 5768 5767 5766
5769 5771 5771 5773 5774 5774 5774 5775 5775 5775 5774 5774 5773 5773 5773 5772 5771 5769 5767 5765 5765 5765 5764 5763 5763 5761 5761 5764 5764 5762 5762 5763 5762 5761 5759 5757 5757 5756 5755 5754 5758 5764 5765 5762 5760 5762 5766 5766 5765 5765 5766 5766 5766 5765 5765 5767 5768 5769 5769 5769 5770 5770 5770 5771 5771 5770 5770 5770 5770 5769 5769 5768 5768 5767
5768 5769 5770 5772 5773 5773 5774 5774 5773 5773 5772 5772 5772 5772 5772 5773 5773 5772 5770 5768 5766 5765 5763 5762 5763 5762 5762 5763 5764 5763 5762 5762 5761 5761 5759 5758 5756 5754 5753 5751 5751 5757 5762 5760 5756 5756 5761 5763 5762 5761 5763 5763 5762 5761 5761 5763 5764 5765 5766 5766 5766 5767 5767 5768 5769 5769 5769 5770 5770 5769 5768 5767 5767 5766
5767 5768 5769 5770 5772 5773 5773 5773 5772 5771 5771 5771 5771 5770 5770 5771 5772 5772 5772 5771 5770 5768 5766 5763 5762 5764 5764 5762 5764 5765 5764 5761 5760 5759 5758 5757 5756 5753 5753 5751 5750 5754 5758 5756 5751 5750 5755 5759 5758 5757 5759 5760 5758 5758 5758 5759 5759 5760 5761 5761 5762 5763 5764 5764 5765 5766 5767 5768 5768 5767 5767 5765 5765 5763
5767 5767 5767 5767 5768 5770 5771 5770 5770 5769 5768 5768 5768 5768 5768 5768 5770 5770 5770 5770 5770 5769 5768 5765 5763 5766 5766 5765 5765 5766 5766 5762 5760 5758 5757 5757 5755 5754 5754 5753 5753 5754 5754 5753 5749 5744 5748 5754 5753 5752 5755 5757 5755 5754 5754 5754 5754 5755 5756 5757 5757 5758 5759 5760 5760 5762 5763 5763 5764 5764 5763 5763 5762 5762
5766 5767 5767 5767 5767 5768 5767 5768 5768 5766 5766 5765 5764 5764 5764 5764 5766 5766 5767 5768 5768 5768 5767 5766 5765 5766 5767 5766 5765 5765 5765 5763 5761 5760 5758 5757 5755 5754 5754 5753 5752 5752 5751 5751 5746 5739 5741 5748 5748 5747 5751 5753 5751 5751 5750 5750 5750 5750 5751 5753 5753 5754 5754 5755 5756 5757 5758 5759 5759 5759 5760 5760 5760 5759
5764 5764 5765 5765 5764 5762 5760 5760 5761 5762 5763 5762 5761 5761 5760 5760 5760 5761 5762 5764 5764 5765 5765 5764 5764 5763 5763 5764 5763 5763 5762 5761 5760 5759 5756 5755 5753 5751 5749 5748 5748 5747 5747 5748 5744 5736 5736 5742 5742 5742 5746 5748 5747 5747 5746 5745 5745 5745 5746 5747 5748 5749 5749 5750 5751 5752 5752 5753 5754 5755 5755 5756 5756 5755
5762 5763 5763 5762 5761 5759 5757 5755 5755 5756 5757 5757 5757 5757 5757 5756 5755 5756 5757 5758 5759 5760 5760 5760 5759 5759 5759 5759 5759 5760 5760 5758 5757 5755 5751 5750 5750 5747 5744 5742 5743 5742 5742 5744 5742 5735 5733 5736 5737 5737 5740 5742 5742 5742 5741 5740 5741 5741 5741 5742 5743 5744 5744 5745 5746 5746 5747 5748 5749 5750 5751 5751 5752 5752
5759 5760 5760 5759 5758 5757 5757 5755 5754 5753 5753 5752 5753 5753 5753 5752 5751 5751 5752 5752 5753 5754 5754 5755 5755 5755 5754 5755 5755 5756 5756 5755 5754 5752 5748 5747 5747 5743 5740 5739 5739 5738 5737 5740 5740 5734 5730 5732 5734 5733 5734 5736 5737 5737 5736 5735 5736 5736 5737 5738 5738 5739 5739 5740 5741 5741 5741 5742 5743 5744 5745 5746 5746 5747
5753 5755 5755 5755 5755 5755 5755 5753 5751 5751 5751 5751 5750 5749 5748 5746 5746 5747 5747 5747 5747 5748 5749 5749 5750 5751 5750 5750 5751 5751 5751 5750 5750 5749 5747 5746 5744 5740 5737 5737 5736 5731 5731 5735 5737 5731 5727 5728 5729 5729 5729 5727 5728 5732 5732 5730 5731 5731 5732 5733 5734 5734 5734 5735 5735 5736 5737 5736 5737 5738 5738 5739 5740 5740
5748 5750 5751 5750 5749 5749 5750 5749 5746 5744 5746 5747 5747 5745 5744 5743 5743 5743 5743 5742 5743 5743 5744 5745 5745 5746 5746 5746 5746 5747 5747 5746 5745 5745 5744 5743 5741 5737 5735 5733 5732 5728 5727 5731 5732 5728 5725 5725 5726 5727 5726 5722 5721 5725 5727 5726 5726 5727 5727 5728 5728 5728 5729 5729 5730 5730 5731 5731 5732 5732 5732 5732 5733 5734
5741 5742 5742 5741 5739 5738 5737 5738 5736 5735 5738 5741 5742 5741 5740 5739 5739 5739 5738 5737 5738 5738 5739 5740 5741 5742 5741 5741 5741 5741 5741 5741 5740 5739 5738 5738 5738 5736 5733 5731 5728 5725 5724 5727 5728 5725 5722 5722 5722 5723 5723 5721 5718 5720 5721 5722 5722 5723 5723 5722 5722 5722 5722 5722 5723 5723 5724 5725 5726 5726 5726 5727 5727 5727
5733 5734 5733 5733 5732 5730 5728 5727 5727 5725 5726 5730 5733 5734 5733 5733 5733 5733 5733 5732 5732 5732 5733 5733 5735 5736 5735 5735 5735 5735 5734 5734 5734 5733 5732 5731 5731 5731 5730 5729 5726 5722 5721 5722 5724 5723 5720 5718 5718 5718 5718 5717 5716 5716 5716 5716 5717 5718 5719 5718 5717 5716 5716 5716 5716 5716 5717 5717 5718 5719 5720 5721 5721 5721
5726 5727 5728 5728 5727 5726 5725 5722 5720 5719 5719 5721 5725 5726 5726 5726 5726 5726 5726 5725 5725 5725 5725 5725 5727 5728 5728 5728 5728 5727 5727 5727 5727 5727 5726 5725 5724 5724 5724 5724 5722 5719 5718 5717 5718 5719 5717 5715 5714 5714 5713 5712 5712 5711 5710 5710 5710 5711 5713 5714 5713 5712 5711 5711 5711 5710 5710 5710 5711 5712 5713 5714 5715 5715
5722 5723 5724 5724 5722 5722 5723 5721 5718 5718 5719 5720 5720 5719 5718 5719 5720 5720 5720 5719 5719 5717 5717 5718 5720 5721 5722 5722 5722 5722 5721 5720 5719 5720 5718 5718 5718 5718 5717 5716 5715 5714 5714 5713 5713 5714 5714 5712 5710 5711 5711 5709 5707 5705 5705 5705 5705 5706 5705 5707 5709 5708 5707 5707 5706 5705 5705 5705 5705 5706 5707 5707 5708 5708
5717 5718 5720 5721 5720 5720 5721 5720 5718 5719 5720 5720 5719 5716 5714 5713 5716 5717 5717 5718 5716 5712 5710 5711 5713 5714 5715 5716 5716 5716 5716 5714 5713 5712 5711 5710 5711 5711 5711 5710 5709 5709 5709 5709 5708 5708 5708 5707 5707 5707 5707 5705 5703 5701 5700 5700 5700 5701 5701 5700 5702 5703 5704 5702 5701 5701 5700 5699 5699 5700 5700 5701 5701 5702
5712 5713 5715 5716 5717 5717 5718 5719 5718 5718 5720 5719 5718 5715 5712 5711 5710 5712 5712 5713 5713 5711 5708 5706 5705 5706 5707 5708 5709 5709 5708 5707 5705 5704 5704 5704 5704 5704 5705 5704 5703 5703 5703 5704 5704 5703 5703 5702 5701 5701 5700 5700 5699 5698 5696 5695 5694 5695 5696 5696 5696 5697 5698 5697 5696 5696 5695 5694 5694 5694 5694 5694 5695 5695
5707 5709 5711 5712 5712 5713 5714 5716 5715 5715 5715 5714 5713 5711 5709 5707 5706 5706 5706 5706 5707 5706 5703 5701 5700 5700 5700 5701 5701 5700 5700 5698 5697 5697 5697 5698 5697 5698 5699 5698 5696 5695 5696 5697 5697 5696 5696 5695 5694 5694 5693 5692 5692 5691 5691 5690 5689 5688 5689 5690 5690 5690 5691 5691 5691 5690 5689 5689 5689 5688 5687 5687 5687 5688
5703 5706 5708 5708 5709 5709 5709 5709 5708 5707 5706 5707 5706 5704 5703 5701 5700 5700 5699 5698 5698 5697 5696 5695 5695 5694 5693 5692 5692 5692 5690 5690 5689 5689 5690 5690 5690 5691 5691 5689 5686 5686 5688 5688 5688 5688 5688 5688 5687 5686 5685 5684 5684 5684 5683 5683 5682 5682 5682 5683 5683 5683 5685 5685 5684 5683 5683 5683 5683 5682 5681 5680 5681 5681
5696 5700 5701 5701 5702 5702 5701 5700 5699 5697 5696 5696 5696 5694 5693 5692 5692 5692 5691 5690 5689 5689 5689 5689 5688 5686 5685 5684 5684 5683 5681 5679 5679 5680 5681 5680 5681 5682 5681 5679 5678 5677 5678 5677 5678 5678 5679 5679 5678 5678 5678 5677 5677 5676 5676 5675 5675 5674 5675 5675 5675 5675 5676 5676 5676 5676 5676 5676 5675 5675 5674 5674 5674 5674
5689 5691 5692 5692 5691 5691 5690 5689 5688 5687 5686 5685 5684 5683 5682 5681 5681 5681 5682 5681 5681 5681 5681 5681 5680 5679 5678 5677 5675 5674 5672 5670 5670 5670 5670 5670 5671 5671 5670 5669 5668 5668 5669 5668 5668 5668 5668 5668 5668 5669 5670 5670 5670 5669 5668 5667 5666 5666 5667 5667 5667 5667 5667 5667 5667 5666 5666 5666 5666 5667 5667 5667 5667 5667
5682 5681 5681 5680 5679 5681 5681 5679 5678 5677 5676 5674 5673 5673 5671 5671 5670 5670 5670 5670 5671 5672 5672 5672 5672 5671 5670 5668 5666 5664 5662 5660 5660 5659 5659 5660 5660 5660 5660 5660 5659 5659 5659 5659 5658 5658 5658 5658 5659 5659 5660 5660 5660 5660 5660 5659 5657 5658 5658 5659 5658 5658 5658 5658 5658 5657 5657 5657 5657 5657 5658 5659 5659 5658
5672 5671 5671 5669 5669 5670 5670 5669 5668 5668 5667 5665 5664 5664 5662 5661 5660 5659 5658 5658 5660 5660 5660 5661 5661 5660 5658 5657 5655 5654 5652 5651 5649 5649 5649 5650 5650 5650 5650 5650 5650 5650 5650 5649 5648 5648 5648 5649 5649 5649 5650 5651 5651 5651 5651 5649 5648 5648 5648 5648 5648 5649 5649 5648 5648 5648 5647 5647 5648 5648 5648 5648 5648 5648
5662 5661 5660 5659 5659 5658 5658 5658 5658 5658 5656 5655 5654 5654 5652 5651 5649 5649 5648 5649 5649 5649 5649 5649 5648 5648 5647 5646 5645 5644 5642 5641 5640 5640 5640 5640 5640 5641 5641 5640 5640 5640 5640 5640 5639 5639 5639 5639 5639 5639 5640 5642 5643 5643 5643 5641 5638 5638 5639 5638 5639 5640 5640 5639 5639 5638 5638 5637 5638 5638 5638 5637 5638 5638
5652 5651 5650 5648 5648 5648 5647 5647 5646 5645 5645 5645 5644 5643 5642 5641 5639 5639 5640 5640 5639 5639 5638 5638 5637 5637 5636 5635 5635 5634 5632 5632 5631 5631 5631 5631 5631 5631 5631 5631 5631 5630 5630 5631 5631 5630 5630 5630 5630 5630 5630 5631 5632 5633 5633 5632 5630 5630 5630 5630 5629 5631 5631 5630 5629 5629 5629 5629 5629 5628 5627 5627 5627 5627
5640 5640 5639 5638 5637 5637 5636 5635 5634 5633 5633 5633 5633 5632 5632 5631 5630 5630 5630 5629 5629 5628 5629 5628 5627 5626 5625 5625 5624 5623 5622 5621 5621 5621 5621 5622 5622 5622 5622 5622 5622 5621 5621 5621 5622 5621 5620 5620 5620 5620 5620 5620 5621 5622 5622 5622 5622 5623 5623 5622 5621 5621 5621 5621 5621 5620 5621 5621 5621 5620 5619 5618 5617 5617
5628 5627 5627 5626 5626 5625 5625 5624 5624 5623 5622 5621 5621 5620 5620 5619 5619 5619 5618 5618 5617 5616 5616 5616 5615 5615 5614 5613 5613 5612 5611 5610 5611 5611 5611 5612 5611 5612 5612 5612 5612 5611 5611 5612 5611 5610 5610 5610 5610 5611 5611 5611 5612 5612 5613 5613 5614 5614 5614 5614 5613 5612 5611 5612 5611 5611 5612 5612 5611 5611 5611 5610 5608 5607
5614 5614 5613 5613 5613 5613 5613 5612 5612 5611 5611 5610 5609 5608 5608 5608 5607 5607 5607 5606 5605 5605 5604 5603 5603 5603 5602 5602 5602 5602 5601 5600 5600 5601 5601 5601 5601 5601 5601 5602 5602 5602 5601 5601 5600 5599 5600 5600 5601 5601 5602 5603 5604 5604 5604 5605 5604 5604 5604 5604 5604 5603 5602 5601 5601 5600 5601 5601 5601 5601 5601 5600 5598 5598
5601 5600 5600 5600 5600 5600 5600 5600 5599 5599 5598 5598 5597 5597 5597 5596 5596 5596 5595 5595 5594 5594 5592 5592 5592 5591 5591 5591 5591 5591 5591 5591 5590 5590 5591 5590 5590 5590 5590 5591 5592 5591 5591 5590 5590 5590 5590 5591 5591 5591 5592 5593 5593 5593 5594 5593 5593 5593 5594 5594 5594 5593 5592 5590 5589 5588 5588 5589 5588 5587 5587 5587 5586 5585
5589 5588 5588 5588 5588 5588 5587 5587 5587 5587 5586 5586 5585 5585 5585 5585 5584 5584 5584 5583 5583 5582 5582 5581 5581 5581 5581 5581 5581 5581 5581 5581 5580 5579 5579 5580 5580 5580 5580 5581 5581 5581 5581 5581 5581 5581 5581 5582 5582 5582 5582 5583 5583 5583 5583 5583 5583 5583 5583 5584 5583 5583 5582 5580 5579 5577 5576 5575 5575 5573 5573 5572 5571 5569
5577 5577 5576 5576 5576 5576 5576 5575 5576 5576 5575 5575 5574 5574 5574 5573 5572 5572 5572 5571 5571 5571 5570 5570 5570 5570 5571 5571 5571 5570 5571 5571 5570 5569 5569 5570 5570 5570 5570 5571 5571 5571 5572 5571 5571 5571 5571 5572 5572 5572 5572 5573 5573 5574 5573 5573 5573 5573 5573 5573 5572 5571 5571 5570 5569 5567 5565 5564 5562 5560 5558 5558 5556 5554
5566 5565 5565 5565 5564 5564 5564 5564 5564 5564 5564 5564 5564 5563 5562 5561 5561 5560 5560 5560 5560 5559 5559 5559 5559 5559 5559 5560 5559 5558 5559 5559 5559 5559 5559 5559 5559 5560 5560 5561 5561 5561 5561 5561 5561 5560 5561 5561 5562 5562 5563 5563 5564 5564 5563 5562 5562 5562 5562 5562 5561 5560 5559 5558 5557 5556 5554 5552 5551 5548 5546 5545 5543 5541